SL-14 DEB

Satellite information

Favourite Embed

Satellite Type and Status

DEBRISIN ORBIT

Key statistics

Satellite SL-14 DEB at a glance.

Uptime

13942

Days in orbit

Revolutions

≈ 14.4

Per day

Orbit

LEO

Low Earth Orbit

Inclination

82.5

Latest

Satellite identification and parameters

Extended collection of information and parameters for SL-14 DEB.

Object identification

Identified? True

Debris? True

Object name: SL-14 DEB

International designator: 1987-068BC

Object number (NORAD): 25225

Object ID (CCSDS): 25225

Country: COMMONWEALTH OF INDEPENDENT STATES (CIS)

Current information (Y/N): Y

RCS size: SMALL

Orbital parameters

Period: 100.228 minutes

Inclination: 82.4916 deg

SMA: 7147.471 km

Apoapsis: 802.357 km

Periapsis: 736.315 km

RAAN: 276.0318 deg

Eccentricy: 0.00461998

Argument of periapsis: 245.4893 deg

Mean anomaly: 169.7944 deg

Mean motion: 14.3672672 rev/day

Mean motion (dot): 0.00023716 rev/day2

B* drag term: 0.0079220413 1/REarth

Two-line elements (TLE)

Creation date: Oct. 19, 2025, 2:20 a.m.

Reference frame: TEME

Reference center: EARTH

Epoch: Oct. 18, 2025, 11:47 p.m. UTC

TLE line 0: 0 SL-14 DEB

TLE line 1: 1 25225U 87068BC 25291.99140378 .00023716 00000-0 79220-2 0 9996

TLE line 2: 2 25225 82.4916 276.0318 0046200 245.4893 169.7944 14.36726720409890

Live tracking on map

Real-time ground track for satellite SL-14 DEB.

In-orbit conjunctions

A list of the most updated potential collisions computed for object SL-14 DEB.

Target Orbit TCA Probability of collision Miss distance Type
NOAA 16 DEB SSO 2025-04-21 23:34:23 0.000103669 276.0 (m) DEBRIS
CZ-4 DEB SSO 2025-03-02 17:16:15 0.0001599289 141.0 (m) DEBRIS

Associated space launch

Second generation soviet meteorological satellite

SL-14 DEB was lifted into orbit during the mission ‘Tsiklon-3 | Meteor-2 16’, on board a Tsiklon-3 space rocket.

The launch took place on Aug. 18, 1987, 2:27 a.m. from 32/1.

For more information about the launch, click the button.

Launch to space Tsiklon-3 | Meteor-2 16
Tsiklon-3 | Meteor-2 16

Agency: N/A

Status: Launch Successful

Launch date: Aug. 18, 1987, 2:27 a.m. UTC

Rocket: Tsiklon-3

Launch pad: 32/1

Location: Plesetsk Cosmodrome, Russian Federation

...

Latest news about this satellite

There are no fresh news available about this satellite. Check back as we update our databases every day.


Newsletter sign-up

Weekly statistics, charts and insights to help you stay on top of the space industry.